Sault Ste Marie, MI

2:12 PM EST on December 15, 2017 (GMT -0500)
Sault Ste Marie Municipal / Sanderson Field

Weather History for KANJ - September, 2012

Change the Weather History Date:

Tuesday, September 18, 2012

  Actual Average Record
Temperature  
Mean Temperature 45 °F 56 °F  
Max Temperature 54 °F 66 °F 86 °F (1955)
Min Temperature 36 °F 47 °F 30 °F (1974)
Degree Days  
Heating Degree Days 20 9  
Month to date heating degree days 102 118  
Since 1 July heating degree days 143 265  
Cooling Degree Days 0 0  
Month to date cooling degree days 23 15  
Year to date cooling degree days 402 193  
Moisture  
Dew Point 37 °F    
Average Humidity 67    
Maximum Humidity 86    
Minimum Humidity 48    
Precipitation  
Precipitation 0.01 in 0.13 in 1.21 in (1947)
Month to date precipitation 0.87 2.24  
Year to date precipitation 18.02 21.41  
Sea Level Pressure  
Sea Level Pressure 29.77 in    
Wind  
Wind Speed 8 mph (North)    
Max Wind Speed 20 mph    
Max Gust Speed 28 mph    
Visibility 10 miles    
Events Rain    
T = Trace of Precipitation, MM = Missing Value Source: NWS Daily Summary

Daily Weather History Graph

Daily Weather History Graph

Search for Another Location

Airport or City:

Trip Planner

Search our weather history database for the weather conditions in past years. The results will help you decide how hot, cold, wet, or windy it might be!

Date:

Astronomy

Sep. 18, 2012 Rise Set
Actual Time 7:19 AM EDT 7:42 PM EDT
Civil Twilight 6:49 AM EDT 8:12 PM EDT
Nautical Twilight 6:13 AM EDT 8:47 PM EDT
Astronomical Twilight 5:37 AM EDT 9:24 PM EDT
Moon 10:33 AM EDT (9/18) 8:48 PM EDT (9/18)
Length of Visible Light 13h 22m
Length of Day
12h 22m
Waxing Crescent, 9% of the Moon is Illuminated
Sep 18
Waxing Crescent
Sep 22
First Quarter
Sep 29
Full
Oct 8
Last Quarter
Oct 15
New

Hourly Weather History & Observations

Time (EDT) Temp. Windchill Dew Point Humidity Pressure Visibility Wind Dir Wind Speed Gust Speed Precip Events Conditions
12:55 AM 48.0 °F - 44.1 °F 86% 29.73 in 10.0 mi NNE 4.6 mph - 0.00 in   Overcast
1:55 AM 48.0 °F - 43.0 °F 83% 29.72 in 10.0 mi North 4.6 mph - N/A   Overcast
2:55 AM 46.9 °F - 42.1 °F 83% 29.73 in 10.0 mi North 8.1 mph - N/A   Mostly Cloudy
3:55 AM 46.9 °F - 41.0 °F 80% 29.73 in 10.0 mi North 8.1 mph - N/A   Scattered Clouds
4:55 AM 46.0 °F 42.5 °F 41.0 °F 83% 29.73 in 10.0 mi North 6.9 mph - N/A   Scattered Clouds
5:55 AM 44.1 °F 39.5 °F 39.0 °F 82% 29.73 in 10.0 mi NNW 8.1 mph - N/A   Clear
6:51 AM 44.6 °F 41.4 °F 39.2 °F 81% 29.74 in 10.0 mi North 5.8 mph - N/A   Mostly Cloudy
6:55 AM 44.1 °F 40.8 °F 39.0 °F 82% 29.74 in 10.0 mi NNW 5.8 mph - N/A   Mostly Cloudy
7:55 AM 44.1 °F 39.0 °F 37.9 °F 79% 29.75 in 10.0 mi North 9.2 mph - N/A   Overcast
8:55 AM 45.0 °F 41.8 °F 37.9 °F 76% 29.76 in 10.0 mi Variable 5.8 mph - N/A   Overcast
9:55 AM 46.0 °F 41.4 °F 37.0 °F 71% 29.76 in 10.0 mi North 9.2 mph - N/A   Overcast
10:22 AM 46.9 °F - 37.0 °F 68% 29.75 in 10.0 mi NNE 8.1 mph 17.3 mph N/A   Scattered Clouds
10:31 AM 48.0 °F - 37.0 °F 66% 29.75 in 10.0 mi NNE 10.4 mph 17.3 mph N/A   Mostly Cloudy
10:55 AM 50.0 °F - 37.0 °F 61% 29.75 in 10.0 mi NE 12.7 mph 18.4 mph N/A   Mostly Cloudy
11:47 AM 52.0 °F - 37.0 °F 57% 29.74 in 10.0 mi NE 8.1 mph - N/A   Mostly Cloudy
11:55 AM 50.0 °F - 37.0 °F 61% 29.75 in 10.0 mi NNW 9.2 mph - N/A   Mostly Cloudy
12:55 PM 51.1 °F - 36.0 °F 56% 29.75 in 10.0 mi North 10.4 mph - N/A   Mostly Cloudy
1:55 PM 54.0 °F - 36.0 °F 51% 29.75 in 10.0 mi North 9.2 mph - N/A   Mostly Cloudy
2:55 PM 52.0 °F - 32.0 °F 47% 29.74 in 10.0 mi North 12.7 mph 17.3 mph N/A   Mostly Cloudy
3:55 PM 48.0 °F - 37.0 °F 66% 29.78 in 10.0 mi NNW 16.1 mph 27.6 mph 0.00 in   Overcast
4:55 PM 48.9 °F - 39.0 °F 69% 29.77 in 10.0 mi NW 8.1 mph - 0.00 in   Overcast
5:55 PM 51.1 °F - 34.0 °F 52% 29.79 in 10.0 mi NNW 9.2 mph - N/A   Clear
6:55 PM 50.0 °F - 35.1 °F 57% 29.81 in 10.0 mi NNW 11.5 mph 17.3 mph N/A   Partly Cloudy
7:55 PM 46.9 °F - 34.0 °F 61% 29.82 in 10.0 mi NW 5.8 mph - N/A   Scattered Clouds
8:55 PM 46.0 °F 41.9 °F 35.1 °F 66% 29.85 in 10.0 mi West 8.1 mph - 0.00 in Rain Light Rain
9:55 PM 45.0 °F 40.1 °F 35.1 °F 68% 29.87 in 10.0 mi NNE 9.2 mph - 0.01 in   Overcast
10:55 PM 43.0 °F 41.3 °F 32.0 °F 65% 29.88 in 10.0 mi NNE 3.5 mph - N/A   Mostly Cloudy
11:55 PM 42.1 °F - 32.0 °F 67% 29.89 in 10.0 mi Calm Calm - N/A   Overcast